{"data":{"norad_id":62996,"epoch":"2026-09-21T00:18:09.548064Z","epoch_age_seconds":120845,"freshness":"FRESH","line1":"1 62996U 25031R   26264.01261051  .00015466  00000+0  57046-3 0  9995","line2":"2 62996  43.0007 120.5744 0001574 270.9561  89.1111 15.27574358 90960","mean_motion":15.27574358,"eccentricity":0.0001574,"inclination_deg":43.0007,"raan_deg":120.5744,"arg_perigee_deg":270.9561,"mean_anomaly_deg":89.1111,"bstar":0.00057046,"rev_number":9096,"period_min":94.267096881971,"perigee_km":481.98603691868,"apogee_km":484.14594362002,"semimajor_km":6861.2029902693,"source":"CELESTRAK","updated_at":"2026-09-22T09:00:49.719612Z"}}